Temp
-12 -12 -12 -12 -12 -12 -12 -11 -11 -11 -11 -11 -11 -11 -11 -11 -11 -11 -11 -11 -11 -11 -12 -12 -12 -12 -12 -12 -12 -12 -12 -12 -12 -12 -12 -12 -12 -12 -12 -12 -12 -11 -11 -11 -11
-12 -12 -12 -11 -11 -11 -11 -12 -12 -11 -11 -11 -11 -11 -11 -12 -12 -11 -11 -12 -11 -12 -12 -12 -12 -12 -12 -12 -12 -12 -12 -12 -12 -12 -12 -12 -12 -12 -12 -12 -12 -12 -12 -12 -11
-12 -12 -12 -12 -12 -11 -11 -11 -11 -11 -11 -11 -11 -12 -12 -12 -12 -12 -12 -12 -12 -12 -12 -12 -12 -12 -12 -12 -12 -12 -12 -12 -13 -13 -13 -13 -12 -12 -12 -13 -13 -14 -14 -14 -13
-12 -12 -12 -12 -12 -12 -12 -12 -12 -11 -11 -11 -12 -12 -12 -12 -12 -12 -12 -12 -12 -12 -12 -12 -12 -12 -12 -13 -13 -13 -13 -13 -13 -13 -13 -13 -13 -13 -13 -13 -13 -14 -15 -15 -15
-13 -12 -12 -12 -12 -12 -12 -12 -12 -12 -12 -12 -12 -12 -12 -12 -12 -12 -12 -12 -12 -12 -12 -12 -13 -13 -13 -13 -13 -13 -13 -13 -13 -13 -13 -13 -13 -13 -14 -13 -13 -14 -15 -16 -16
-13 -13 -13 -13 -13 -12 -12 -12 -12 -12 -12 -12 -12 -12 -12 -13 -13 -13 -13 -12 -13 -13 -13 -13 -13 -13 -13 -13 -13 -13 -13 -13 -13 -13 -13 -13 -13 -13 -14 -14 -14 -14 -16 -16 -16
-13 -13 -13 -13 -13 -13 -13 -13 -13 -13 -13 -13 -13 -13 -13 -13 -13 -13 -13 -13 -13 -13 -13 -13 -13 -13 -13 -13 -13 -13 -13 -13 -14 -14 -13 -13 -14 -14 -14 -14 -14 -15 -16 -16 -16
-13 -13 -13 -13 -13 -13 -13 -13 -13 -13 -13 -13 -13 -13 -13 -13 -13 -13 -13 -13 -13 -13 -13 -13 -13 -13 -13 -13 -14 -14 -14 -14 -14 -14 -14 -14 -13 -15 -14 -14 -15 -16 -16 -17 -16
-14 -14 -13 -13 -13 -13 -13 -13 -13 -13 -13 -13 -13 -13 -13 -13 -13 -13 -13 -13 -13 -13 -14 -14 -14 -14 -14 -14 -14 -14 -14 -14 -14 -14 -13 -14 -14 -15 -15 -15 -16 -17 -17 -17 -17
-14 -14 -13 -13 -13 -13 -13 -13 -13 -13 -13 -13 -13 -13 -14 -14 -14 -14 -14 -14 -14 -14 -14 -14 -14 -14 -14 -14 -14 -14 -14 -14 -14 -14 -14 -14 -14 -15 -15 -16 -17 -17 -18 -17 -17
-14 -14 -14 -14 -14 -14 -14 -14 -13 -13 -14 -14 -14 -14 -14 -14 -14 -14 -14 -14 -15 -15 -14 -14 -14 -15 -15 -15 -15 -15 -15 -14 -14 -14 -14 -15 -14 -15 -16 -17 -17 -18 -18 -18 -18
-14 -14 -14 -14 -14 -15 -15 -14 -14 -14 -14 -14 -14 -14 -14 -14 -14 -14 -14 -14 -15 -15 -15 -15 -15 -14 -15 -15 -15 -15 -15 -15 -14 -15 -15 -15 -15 -16 -17 -17 -17 -18 -18 -18 -18
-15 -15 -16 -15 -15 -15 -15 -15 -15 -14 -14 -14 -14 -14 -14 -14 -14 -14 -14 -14 -15 -15 -15 -15 -15 -15 -15 -15 -16 -15 -15 -15 -14 -15 -15 -15 -15 -16 -17 -17 -18 -18 -18 -19 -19
-16 -16 -16 -16 -16 -16 -16 -15 -15 -15 -14 -14 -14 -15 -15 -15 -15 -15 -15 -15 -15 -15 -15 -15 -15 -15 -15 -16 -16 -16 -16 -15 -15 -15 -15 -16 -15 -17 -17 -17 -18 -18 -18 -19 -20
-17 -17 -17 -17 -17 -16 -16 -16 -16 -15 -15 -15 -15 -15 -15 -16 -16 -16 -15 -15 -15 -15 -15 -15 -15 -15 -15 -15 -16 -16 -16 -15 -15 -15 -15 -16 -16 -17 -17 -18 -18 -18 -18 -19 -19
-17 -17 -17 -17 -17 -17 -17 -17 -17 -17 -17 -16 -16 -16 -16 -17 -17 -17 -16 -15 -15 -16 -15 -15 -15 -15 -15 -16 -16 -16 -16 -15 -15 -15 -15 -16 -18 -17 -18 -18 -18 -19 -19 -20 -20
-18 -18 -18 -18 -18 -18 -18 -18 -18 -18 -18 -17 -17 -18 -18 -18 -18 -18 -17 -17 -16 -16 -16 -16 -16 -15 -15 -16 -16 -16 -16 -15 -15 -15 -16 -17 -18 -18 -18 -18 -19 -19 -20 -20 -21
-19 -18 -18 -18 -18 -19 -18 -18 -19 -19 -19 -18 -18 -18 -19 -19 -18 -18 -18 -17 -17 -17 -16 -16 -16 -15 -16 -16 -16 -16 -16 -16 -16 -16 -16 -18 -18 -18 -18 -18 -19 -19 -20 -20 -20
-19 -19 -19 -19 -19 -19 -19 -19 -19 -19 -18 -19 -19 -18 -18 -18 -18 -18 -18 -17 -17 -16 -16 -16 -16 -16 -16 -16 -17 -16 -16 -16 -16 -16 -16 -17 -18 -18 -18 -18 -19 -19 -20 -20 -20
-20 -20 -20 -19 -19 -19 -19 -19 -19 -19 -19 -18 -19 -19 -18 -18 -18 -18 -18 -18 -17 -17 -16 -16 -16 -16 -16 -17 -17 -16 -16 -16 -17 -17 -17 -17 -18 -18 -18 -19 -19 -19 -19 -20 -20
-20 -20 -20 -20 -19 -19 -19 -19 -19 -19 -19 -18 -19 -19 -19 -19 -19 -18 -18 -18 -17 -17 -17 -16 -16 -16 -16 -17 -17 -17 -17 -17 -17 -18 -19 -18 -18 -18 -18 -18 -19 -19 -19 -19 -20
-20 -20 -20 -20 -20 -20 -19 -19 -19 -19 -19 -19 -18 -18 -19 -19 -19 -18 -18 -18 -17 -17 -17 -17 -16 -16 -16 -17 -17 -16 -17 -17 -17 -18 -19 -18 -18 -18 -18 -18 -19 -19 -19 -19 -20
-20 -20 -20 -20 -20 -20 -20 -20 -20 -19 -19 -19 -19 -18 -19 -19 -19 -19 -18 -18 -18 -17 -17 -16 -16 -16 -17 -17 -16 -16 -17 -17 -17 -18 -19 -18 -18 -18 -18 -18 -19 -19 -19 -19 -19
-20 -20 -20 -20 -20 -20 -20 -20 -20 -20 -20 -19 -19 -18 -19 -19 -19 -19 -19 -18 -18 -17 -17 -17 -17 -16 -17 -16 -16 -16 -17 -17 -17 -18 -18 -18 -18 -18 -18 -18 -18 -18 -19 -19 -19
-20 -20 -21 -20 -20 -20 -20 -20 -20 -20 -20 -20 -19 -19 -19 -19 -19 -19 -19 -18 -18 -17 -17 -17 -17 -17 -17 -16 -16 -16 -17 -17 -18 -18 -18 -18 -18 -18 -18 -18 -18 -19 -19 -19 -19
-21 -21 -21 -21 -20 -20 -20 -20 -20 -20 -20 -20 -20 -19 -19 -19 -19 -19 -19 -18 -18 -18 -17 -17 -17 -17 -17 -16 -16 -16 -17 -17 -18 -18 -18 -18 -18 -18 -18 -19 -19 -19 -19 -19 -19
-21 -21 -21 -21 -21 -21 -21 -21 -20 -20 -20 -20 -20 -20 -19 -19 -19 -19 -18 -18 -18 -18 -17 -17 -17 -17 -17 -17 -17 -17 -17 -18 -18 -18 -18 -18 -18 -18 -19 -19 -19 -19 -19 -19 -19
Height
5784 5784 5783 5783 5782 5781 5780 5779 5779 5777 5776 5775 5774 5773 5771 5770 5768 5768 5767 5766 5764 5762 5761 5760 5759 5759 5758 5758 5758 5757 5757 5756 5755 5755 5754 5752 5751 5750 5748 5745 5744 5742 5739 5737 5733
5780 5779 5780 5779 5778 5777 5777 5775 5775 5774 5772 5771 5770 5769 5767 5766 5764 5763 5763 5761 5759 5758 5757 5756 5755 5754 5754 5753 5752 5751 5751 5750 5749 5747 5746 5745 5744 5741 5739 5736 5733 5729 5728 5725 5720
5776 5776 5775 5775 5774 5773 5772 5772 5771 5769 5768 5767 5766 5764 5763 5761 5760 5758 5757 5756 5754 5753 5752 5751 5750 5749 5748 5747 5746 5745 5745 5742 5742 5740 5738 5736 5733 5731 5729 5727 5722 5720 5715 5710 5707
5770 5771 5770 5769 5769 5768 5768 5767 5767 5765 5764 5763 5762 5760 5758 5756 5756 5753 5751 5750 5749 5748 5747 5745 5744 5743 5742 5741 5739 5739 5737 5736 5734 5733 5730 5727 5725 5720 5717 5715 5712 5708 5704 5701 5697
5765 5765 5765 5764 5764 5763 5762 5761 5761 5760 5759 5758 5757 5755 5753 5752 5750 5747 5746 5745 5743 5742 5740 5739 5738 5737 5736 5735 5733 5732 5731 5728 5727 5724 5722 5719 5715 5712 5709 5704 5699 5696 5692 5689 5686
5758 5758 5759 5758 5757 5757 5756 5755 5754 5754 5753 5752 5751 5750 5748 5747 5744 5742 5740 5738 5737 5736 5734 5733 5731 5730 5729 5728 5727 5726 5724 5721 5720 5716 5714 5711 5707 5703 5698 5693 5688 5684 5680 5676 5673
5752 5752 5752 5752 5751 5750 5749 5749 5748 5747 5746 5745 5745 5743 5742 5741 5738 5735 5734 5732 5730 5729 5728 5726 5725 5724 5723 5721 5720 5718 5717 5714 5711 5709 5705 5702 5699 5694 5688 5682 5676 5671 5666 5660 5658
5744 5745 5745 5744 5744 5742 5741 5741 5740 5739 5738 5737 5736 5735 5734 5733 5730 5728 5726 5725 5723 5721 5720 5719 5718 5717 5715 5714 5713 5711 5709 5707 5703 5700 5697 5694 5692 5683 5677 5670 5661 5656 5649 5644 5639
5736 5736 5736 5736 5736 5735 5734 5733 5732 5731 5729 5728 5727 5726 5725 5724 5722 5720 5718 5717 5715 5713 5712 5711 5710 5709 5708 5706 5705 5703 5700 5698 5694 5691 5687 5684 5680 5669 5661 5652 5647 5640 5636 5630 5624
5727 5727 5727 5727 5727 5726 5725 5725 5724 5723 5721 5720 5719 5719 5716 5715 5712 5711 5709 5708 5706 5705 5705 5704 5702 5701 5700 5698 5697 5695 5693 5691 5686 5682 5677 5673 5668 5657 5647 5640 5633 5628 5622 5617 5609
5718 5718 5717 5717 5717 5717 5717 5717 5717 5717 5714 5713 5712 5711 5709 5708 5705 5703 5701 5699 5698 5696 5696 5695 5694 5692 5691 5690 5689 5687 5684 5681 5677 5673 5668 5663 5657 5647 5637 5627 5621 5616 5610 5601 5594
5708 5708 5707 5708 5708 5708 5707 5707 5707 5708 5708 5705 5704 5702 5701 5699 5698 5696 5693 5692 5689 5687 5686 5687 5685 5684 5682 5682 5681 5679 5676 5674 5669 5664 5659 5653 5647 5638 5629 5621 5612 5604 5597 5588 5578
5699 5699 5700 5699 5699 5699 5698 5697 5696 5697 5698 5698 5695 5694 5692 5691 5689 5687 5686 5683 5681 5679 5678 5677 5677 5673 5674 5675 5673 5671 5669 5665 5660 5655 5650 5643 5638 5629 5619 5609 5602 5595 5586 5576 5564
5690 5690 5692 5692 5692 5690 5689 5688 5687 5686 5686 5687 5685 5682 5681 5680 5680 5678 5676 5675 5672 5670 5669 5669 5666 5667 5667 5667 5665 5665 5662 5657 5653 5647 5641 5632 5625 5619 5608 5599 5593 5584 5576 5566 5556
5681 5682 5682 5683 5682 5681 5680 5679 5677 5675 5675 5676 5675 5671 5669 5669 5668 5667 5666 5665 5664 5661 5662 5661 5660 5659 5660 5659 5658 5657 5654 5650 5645 5639 5632 5624 5616 5607 5600 5593 5585 5576 5568 5559 5549
5673 5674 5674 5674 5674 5673 5672 5671 5669 5669 5665 5665 5662 5660 5658 5656 5655 5655 5656 5655 5654 5653 5652 5653 5654 5653 5653 5652 5650 5649 5646 5641 5636 5631 5624 5616 5606 5600 5592 5585 5578 5569 5561 5551 5540
5666 5666 5665 5665 5666 5666 5665 5664 5663 5661 5659 5657 5654 5651 5650 5649 5648 5647 5647 5645 5645 5645 5644 5644 5646 5646 5646 5645 5644 5643 5639 5634 5628 5622 5615 5607 5599 5593 5587 5580 5573 5564 5554 5545 5535
5658 5658 5658 5658 5658 5659 5659 5659 5657 5655 5651 5649 5647 5645 5644 5643 5641 5640 5638 5637 5637 5637 5636 5636 5639 5639 5639 5638 5638 5636 5633 5629 5620 5614 5610 5603 5595 5590 5583 5577 5569 5561 5550 5541 5532
5652 5651 5651 5651 5653 5652 5653 5652 5650 5649 5648 5644 5641 5638 5636 5634 5633 5632 5631 5630 5630 5630 5630 5630 5631 5631 5632 5631 5632 5630 5627 5622 5615 5610 5602 5599 5592 5587 5580 5574 5567 5557 5548 5539 5529
5644 5644 5645 5645 5645 5646 5646 5645 5644 5643 5642 5639 5635 5631 5628 5626 5625 5625 5624 5624 5623 5622 5621 5623 5624 5625 5626 5626 5627 5624 5621 5615 5609 5602 5595 5593 5588 5582 5577 5572 5564 5555 5547 5537 5528
5635 5636 5637 5637 5638 5638 5638 5639 5637 5636 5636 5635 5630 5627 5623 5620 5619 5619 5619 5618 5617 5616 5616 5616 5619 5621 5620 5621 5621 5619 5615 5611 5605 5600 5592 5588 5585 5579 5575 5570 5562 5554 5546 5536 5526
5625 5627 5628 5629 5631 5630 5631 5630 5631 5630 5629 5629 5625 5622 5619 5616 5614 5614 5614 5612 5611 5610 5611 5612 5614 5614 5615 5616 5616 5613 5610 5605 5600 5596 5590 5585 5582 5577 5573 5568 5562 5554 5545 5536 5526
5616 5617 5619 5621 5622 5622 5623 5623 5623 5624 5623 5622 5620 5618 5616 5613 5612 5610 5609 5608 5606 5604 5605 5607 5608 5609 5609 5613 5612 5609 5605 5601 5597 5593 5589 5583 5579 5575 5572 5567 5561 5554 5546 5536 5526
5607 5608 5610 5612 5613 5614 5615 5616 5616 5617 5617 5615 5615 5614 5612 5610 5608 5605 5604 5603 5602 5601 5600 5602 5603 5604 5606 5607 5607 5605 5601 5598 5595 5590 5587 5582 5579 5575 5571 5567 5562 5554 5547 5537 5528
5596 5599 5600 5603 5604 5605 5607 5609 5609 5610 5610 5610 5610 5609 5607 5605 5605 5602 5601 5599 5598 5596 5596 5597 5598 5600 5601 5603 5603 5601 5598 5596 5593 5589 5585 5582 5578 5574 5571 5567 5563 5556 5548 5541 5532
5587 5589 5591 5594 5595 5597 5599 5600 5602 5603 5603 5603 5604 5603 5602 5601 5599 5598 5597 5596 5595 5593 5592 5592 5594 5596 5597 5599 5599 5597 5596 5594 5592 5588 5585 5581 5578 5575 5572 5569 5565 5559 5553 5546 5539
5577 5578 5581 5584 5586 5589 5590 5592 5594 5595 5596 5597 5598 5598 5597 5596 5595 5594 5593 5592 5591 5589 5587 5588 5589 5591 5593 5595 5595 5595 5594 5593 5591 5588 5586 5584 5582 5579 5576 5572 5568 5562 5557 5550 5543
Wind_Speed
18 19 20 20 20 20 20 19 19 18 18 18 18 16 17 18 19 20 20 20 18 18 18 18 19 21 21 21 23 23 22 22 23 22 24 24 26 26 28 32 33 35 39 41 44
21 20 20 21 20 20 21 21 22 21 20 19 20 20 21 21 22 22 23 22 21 20 19 19 21 21 22 23 24 25 25 24 25 25 26 25 26 28 31 34 37 40 40 43 46
24 23 21 22 22 22 22 23 23 22 23 22 21 22 23 23 24 24 24 24 23 21 21 22 22 24 23 23 25 25 25 26 26 28 28 28 29 32 33 35 39 39 42 45 47
27 27 26 24 25 24 25 25 25 25 26 27 27 26 25 23 24 24 24 25 25 24 25 24 24 24 26 25 26 26 27 28 28 28 30 31 32 36 39 40 43 44 43 44 46
28 28 27 27 28 28 28 28 29 28 28 28 28 27 25 25 27 28 27 27 27 27 27 26 25 26 27 27 28 28 28 30 30 30 31 33 36 38 41 45 48 48 47 48 47
29 27 26 28 28 29 29 30 32 33 31 30 29 28 29 29 30 30 31 30 29 28 28 27 26 27 27 29 29 29 30 31 31 32 33 35 38 41 45 47 52 53 52 53 51
29 29 30 30 30 31 32 33 34 34 34 35 34 31 31 29 32 32 32 32 30 30 29 28 28 28 29 30 30 32 30 32 33 33 34 37 39 43 47 52 56 56 57 60 57
34 33 32 32 33 33 34 36 38 39 39 38 37 36 36 34 35 36 35 35 32 31 31 30 29 30 30 31 31 32 32 32 34 34 36 39 41 46 51 55 57 57 56 56 58
35 37 36 34 31 34 37 38 39 39 40 40 40 40 39 38 39 39 37 36 34 32 33 32 31 31 32 32 32 32 34 33 35 37 39 42 44 51 55 58 56 52 51 53 56
35 37 39 38 39 40 38 39 39 38 38 37 32 30 31 32 33 34 35 37 38 37 35 34 33 32 33 32 32 33 34 33 36 39 41 44 48 51 53 51 46 46 50 55 59
42 42 43 42 40 40 40 39 38 37 32 28 26 24 25 27 27 30 32 35 38 39 38 36 35 35 32 31 32 33 34 35 37 39 42 45 48 47 46 45 43 47 53 57 61
44 45 44 43 42 40 39 37 38 37 31 31 33 33 33 32 31 29 31 32 33 37 38 36 36 40 31 31 31 32 33 34 37 40 43 46 45 42 42 45 48 51 54 58 61
41 42 41 40 39 37 37 36 36 36 39 41 42 41 39 38 36 33 32 34 36 37 35 36 39 33 30 27 29 30 32 34 38 41 43 44 43 42 45 45 47 48 50 46 48
38 40 41 38 38 37 37 38 38 39 44 45 45 42 39 37 37 36 35 33 34 35 38 35 33 28 25 27 29 28 31 33 37 41 45 44 46 45 46 41 40 40 37 39 41
40 40 38 37 35 34 36 38 39 44 43 43 42 42 43 43 42 37 35 34 33 33 33 28 27 25 23 28 29 27 29 33 37 40 42 42 46 40 34 35 31 35 36 34 37
37 35 34 34 35 32 30 30 33 35 35 38 42 44 45 41 36 33 35 37 36 33 31 33 27 24 26 29 25 25 29 33 37 41 42 43 44 34 34 29 31 39 33 32 32
32 28 27 27 27 25 21 21 30 25 29 32 36 37 31 30 29 31 32 31 32 34 30 26 26 24 26 27 21 24 28 33 39 40 41 43 33 32 29 26 35 32 30 27 31
25 25 25 24 23 21 18 21 22 24 29 30 31 34 34 36 33 33 34 33 31 31 26 22 22 24 24 20 17 23 26 31 37 39 41 32 29 27 23 27 28 28 28 29 33
27 26 25 24 23 22 22 22 24 24 26 26 30 26 29 33 37 33 30 28 27 27 28 26 22 20 20 15 16 20 25 29 34 37 38 27 27 22 20 25 27 29 29 31 33
29 29 29 27 26 26 26 27 28 26 26 24 27 24 28 31 27 31 25 23 24 25 21 23 18 16 17 11 15 20 24 29 32 37 35 26 24 20 20 23 25 28 31 32 33
33 33 33 29 28 27 27 29 30 27 26 25 22 24 22 25 21 23 24 22 22 23 21 16 14 15 16 9 14 17 23 25 31 28 30 27 22 17 17 20 23 28 32 34 35
34 37 35 31 31 30 31 29 28 26 25 24 22 23 22 23 21 20 20 20 20 20 19 17 17 16 12 9 12 16 19 24 29 25 26 25 19 14 16 19 25 28 31 29 33
33 34 32 32 31 29 29 27 27 25 24 21 22 24 20 20 19 18 18 19 18 18 18 19 18 16 10 9 10 13 17 22 21 20 20 20 18 14 14 19 25 27 26 28 28
34 34 33 32 32 28 29 26 25 21 21 21 21 22 20 18 19 17 18 19 18 16 17 19 16 15 10 8 8 9 16 19 15 16 16 15 12 15 15 17 22 22 21 23 25
35 35 33 32 30 28 28 27 27 25 22 22 20 20 19 16 17 18 17 18 19 19 16 17 13 13 10 7 6 8 13 13 11 13 13 11 11 12 13 13 15 19 23 26 28
36 35 35 34 31 30 29 28 27 25 23 24 20 19 20 17 17 17 18 17 18 18 17 15 12 11 11 6 4 7 10 7 7 12 11 11 12 14 18 21 22 24 24 26 29
36 35 35 33 32 32 30 28 27 27 27 26 22 20 21 19 18 18 19 18 16 16 18 15 12 15 13 6 3 5 6 2 6 10 16 19 19 19 20 20 22 25 27 29 29
Wind_Direction
289 295 296 297 296 295 294 296 297 296 296 296 299 302 302 300 299 296 293 293 292 294 291 283 282 281 277 278 280 281 279 279 278 280 282 285 288 287 286 287 287 286 290 290 288
288 290 292 291 292 294 295 295 297 297 298 296 292 294 298 299 297 295 294 290 289 291 288 281 279 276 276 276 279 282 282 284 287 285 285 286 288 291 292 293 291 289 289 288 289
283 282 286 289 288 288 292 296 297 297 296 294 293 296 298 296 294 293 291 289 287 286 286 282 278 277 273 275 280 281 282 284 287 289 289 292 295 292 293 296 293 288 283 285 287
282 282 282 286 290 288 287 289 293 299 296 290 291 294 296 296 296 293 292 290 288 286 286 284 280 278 277 278 280 282 284 286 288 289 291 295 296 297 300 298 299 290 284 281 281
281 282 282 286 288 289 290 289 291 296 295 294 292 292 293 295 298 299 296 290 286 285 285 283 279 279 279 280 282 283 284 287 290 290 291 297 298 298 301 299 296 291 283 280 281
278 280 283 286 289 292 293 293 291 292 293 292 292 291 293 296 298 301 300 293 285 284 282 282 278 278 277 280 280 282 284 286 289 290 293 296 298 298 300 298 297 293 284 281 281
275 276 278 283 287 289 291 292 290 289 288 289 289 290 290 292 293 296 298 297 287 281 281 280 277 277 277 279 282 284 285 288 289 291 295 299 302 301 299 298 295 290 284 279 278
278 278 281 285 289 293 293 293 290 287 287 287 288 288 288 287 288 291 293 292 289 281 278 278 277 277 277 279 282 285 286 288 289 292 294 295 299 303 302 300 294 293 285 283 282
277 278 280 283 287 290 295 292 294 290 289 288 287 287 287 286 285 287 287 286 284 282 277 275 276 275 277 280 283 284 289 291 293 294 295 300 304 308 306 300 297 289 283 284 288
278 281 283 283 285 287 286 287 289 290 289 288 289 289 289 288 286 283 281 279 276 276 276 274 273 275 277 280 283 286 289 291 294 295 297 306 309 312 306 305 297 291 287 290 291
277 280 285 286 285 285 286 290 288 289 285 285 289 290 294 294 295 291 287 281 276 273 272 272 272 272 273 277 284 289 292 295 294 299 303 312 313 311 310 305 298 293 293 293 294
275 280 281 283 285 287 288 290 290 286 273 278 286 292 293 292 296 295 289 284 282 279 273 269 273 273 268 275 283 289 292 295 298 304 308 314 316 315 310 302 296 292 295 299 302
276 279 282 284 287 285 285 284 285 283 278 277 283 288 290 290 290 288 287 284 279 278 274 270 273 265 269 278 285 290 295 297 302 307 312 316 315 313 310 306 300 301 305 308 307
280 281 284 284 282 284 284 284 287 287 285 285 287 290 288 285 282 281 283 281 281 278 275 266 278 268 269 277 283 290 295 298 303 311 318 320 318 317 311 308 310 314 316 315 317
282 282 282 282 282 282 285 289 290 288 289 289 288 288 288 287 287 278 275 275 275 277 278 275 267 263 276 282 285 291 297 301 307 315 319 321 319 322 320 319 324 322 322 323 331
279 279 280 283 284 285 287 292 292 296 301 293 291 292 288 287 282 273 267 268 269 276 281 282 267 265 276 282 287 296 300 307 312 318 321 327 326 326 328 332 330 329 328 340 350
277 276 276 279 280 282 285 296 296 311 304 299 298 294 285 281 282 276 268 269 274 276 275 264 264 264 274 278 289 297 305 310 316 323 327 330 329 330 335 330 332 338 340 349 347
270 271 269 271 273 277 283 294 305 311 308 311 306 295 286 279 277 279 275 275 275 278 280 256 254 264 272 280 291 300 306 314 320 324 328 331 331 335 334 333 343 348 348 347 343
266 265 265 266 272 271 276 286 296 300 306 307 318 299 290 282 280 279 280 277 276 274 266 258 256 265 280 274 291 299 307 318 322 323 325 337 334 333 339 337 344 345 347 345 343
266 266 266 268 270 272 274 284 293 294 300 309 319 305 299 292 282 283 276 286 281 273 274 251 253 274 277 276 291 304 314 322 326 328 327 338 339 339 340 338 342 344 349 348 346
264 265 267 268 271 275 279 282 288 288 292 305 302 320 311 299 292 281 278 290 282 277 269 263 266 274 271 277 293 308 316 324 325 331 330 337 343 338 335 336 339 342 344 342 343
265 263 264 268 272 277 278 280 282 281 286 294 305 311 316 313 299 289 285 289 288 275 266 264 265 272 259 278 297 312 318 327 328 331 336 342 341 342 339 340 342 344 346 350 348
263 264 264 266 267 268 272 275 278 278 283 292 300 307 311 319 297 294 287 287 302 282 264 263 266 269 247 268 295 311 324 328 332 336 346 345 337 343 337 343 345 341 347 350 350
262 262 264 265 266 266 267 270 271 273 280 288 294 298 305 319 302 301 292 292 297 293 265 263 271 268 237 265 294 314 330 329 333 348 348 349 359 345 338 345 345 342 356 8 13
260 260 259 260 262 261 263 265 267 270 276 281 287 291 296 310 302 296 291 293 298 302 284 262 261 256 232 260 292 327 337 330 344 355 0 17 12 3 355 10 10 24 28 29 34
258 258 256 256 257 256 258 260 262 266 269 274 280 283 291 289 301 305 291 287 291 295 293 266 256 229 242 247 276 339 339 341 356 11 27 36 42 55 67 63 52 48 45 38 40
255 254 255 254 254 255 254 255 258 259 262 265 269 272 278 289 289 294 296 286 292 298 294 267 243 202 235 239 255 336 340 1 32 64 83 79 74 64 60 54 49 44 42 41 41